TimeCST,TemperatureF,Dew PointF,Humidity,Sea Level PressureIn,VisibilityMPH,Wind Direction,Wind SpeedMPH,Gust SpeedMPH,PrecipitationIn,Events,Conditions,WindDirDegrees,DateUTC
12:56 AM,43.0,41.0,93,30.15,3.0,Calm,Calm,-,N/A,,Scattered Clouds,0,2013-01-21 06:56:00
1:56 AM,43.0,41.0,93,30.14,2.0,WNW,3.5,-,N/A,,Scattered Clouds,290,2013-01-21 07:56:00
2:18 AM,44.6,42.8,93,30.14,1.2,Calm,Calm,-,N/A,,Mostly Cloudy,0,2013-01-21 08:18:00
2:36 AM,41.0,39.2,93,30.13,0.8,Calm,Calm,-,N/A,,Mostly Cloudy,0,2013-01-21 08:36:00
2:56 AM,44.1,42.1,93,30.13,0.8,Calm,Calm,-,N/A,,Mostly Cloudy,0,2013-01-21 08:56:00
3:21 AM,42.8,42.8,100,30.14,1.8,West,4.6,-,N/A,,Scattered Clouds,260,2013-01-21 09:21:00
3:38 AM,41.0,39.2,93,30.14,3.0,West,3.5,-,N/A,,Partly Cloudy,270,2013-01-21 09:38:00
3:56 AM,41.0,39.9,96,30.14,7.0,West,4.6,-,N/A,,Scattered Clouds,280,2013-01-21 09:56:00
4:56 AM,43.0,41.0,93,30.15,7.0,Calm,Calm,-,N/A,,Scattered Clouds,0,2013-01-21 10:56:00
5:56 AM,43.0,42.1,97,30.16,6.0,WNW,4.6,-,N/A,,Scattered Clouds,290,2013-01-21 11:56:00
6:56 AM,39.9,39.0,97,30.17,7.0,Calm,Calm,-,N/A,,Scattered Clouds,0,2013-01-21 12:56:00
7:56 AM,46.0,42.1,86,30.19,7.0,NNW,3.5,-,N/A,,Mostly Cloudy,330,2013-01-21 13:56:00
8:56 AM,54.0,42.1,64,30.22,10.0,North,6.9,-,N/A,,Overcast,350,2013-01-21 14:56:00
9:56 AM,59.0,41.0,51,30.22,10.0,North,6.9,-,N/A,,Overcast,10,2013-01-21 15:56:00
10:56 AM,63.0,41.0,45,30.19,10.0,NNE,6.9,-,N/A,,Overcast,20,2013-01-21 16:56:00
11:56 AM,64.9,39.0,39,30.17,10.0,NNW,6.9,21.9,N/A,,Overcast,340,2013-01-21 17:56:00
12:56 PM,66.0,37.9,36,30.15,10.0,North,9.2,-,N/A,,Mostly Cloudy,10,2013-01-21 18:56:00
1:56 PM,66.0,39.0,37,30.14,10.0,Variable,6.9,-,N/A,,Mostly Cloudy,0,2013-01-21 19:56:00
2:56 PM,66.0,37.9,36,30.14,10.0,NNW,11.5,-,N/A,,Mostly Cloudy,340,2013-01-21 20:56:00
3:56 PM,64.9,37.9,37,30.15,10.0,North,11.5,-,N/A,,Mostly Cloudy,350,2013-01-21 21:56:00
4:56 PM,61.0,39.9,46,30.16,10.0,North,8.1,-,N/A,,Mostly Cloudy,10,2013-01-21 22:56:00
5:56 PM,57.0,39.9,53,30.18,10.0,North,4.6,-,N/A,,Mostly Cloudy,350,2013-01-21 23:56:00
6:56 PM,55.9,39.9,55,30.20,10.0,North,6.9,-,N/A,,Scattered Clouds,360,2013-01-22 00:56:00
7:56 PM,54.0,39.9,59,30.21,10.0,North,6.9,-,N/A,,Mostly Cloudy,10,2013-01-22 01:56:00
8:56 PM,53.1,39.9,61,30.22,10.0,NNE,5.8,-,N/A,,Scattered Clouds,30,2013-01-22 02:56:00
9:56 PM,50.0,39.0,66,30.22,10.0,NNE,6.9,-,N/A,,Scattered Clouds,20,2013-01-22 03:56:00
10:56 PM,48.0,37.9,68,30.21,10.0,NNE,4.6,-,N/A,,Mostly Cloudy,30,2013-01-22 04:56:00
11:56 PM,46.9,36.0,66,30.22,10.0,North,5.8,-,N/A,,Mostly Cloudy,10,2013-01-22 05:56:00